• In Belarus
  • List of Countries
  • For 7 days
  • Water Temperature
  • Weather Map
  • Weather Widgets
  • user-avatar
    Login

    Hourly Weather Herāt

    Today, 20 September, Friday

    Time Temperature Precipitation Wind Pressure Humidity
    00:00 +24°C° 0 mm 3 mps 680 mmHg 16%
    01:00 +22°C° 0 mm 3 mps 679 mmHg 17%
    02:00 +22°C° 0 mm 3 mps 679 mmHg 18%
    03:00 +21°C° 0 mm 2 mps 679 mmHg 18%
    04:00 +21°C° 0 mm 2 mps 679 mmHg 19%
    05:00 +23°C° 0 mm 2 mps 680 mmHg 18%
    06:00 +25°C° 0 mm 2 mps 680 mmHg 16%
    07:00 +26°C° 0 mm 2 mps 681 mmHg 15%
    08:00 +29°C° 0 mm 3 mps 681 mmHg 14%
    09:00 +32°C° 0 mm 4 mps 682 mmHg 12%
    10:00 +35°C° 0 mm 5 mps 682 mmHg 10%
    11:00 +36°C° 0 mm 7 mps 682 mmHg 10%
    12:00 +38°C° 0 mm 8 mps 681 mmHg 9%
    13:00 +39°C° 0 mm 10 mps 681 mmHg 9%
    14:00 +38°C° 0 mm 10 mps 681 mmHg 9%
    15:00 +38°C° 0 mm 10 mps 680 mmHg 9%
    16:00 +37°C° 0 mm 10 mps 680 mmHg 9%
    17:00 +34°C° 0 mm 9 mps 680 mmHg 11%
    18:00 +31°C° 0 mm 8 mps 680 mmHg 13%
    19:00 +28°C° 0 mm 7 mps 680 mmHg 15%
    20:00 +27°C° 0 mm 6 mps 680 mmHg 17%
    21:00 +26°C° 0 mm 5 mps 680 mmHg 20%
    22:00 +25°C° 0 mm 4 mps 679 mmHg 22%
    23:00 +23°C° 0 mm 4 mps 679 mmHg 23%

    Tomorrow, 21 September, Saturday

    Time Temperature Precipitation Wind Pressure Humidity
    00:00 +22°C° 0 mm 3 mps 679 mmHg 23%
    01:00 +21°C° 0 mm 2 mps 678 mmHg 24%
    02:00 +21°C° 0 mm 2 mps 678 mmHg 24%
    03:00 +20°C° 0 mm 2 mps 678 mmHg 25%
    04:00 +20°C° 0 mm 2 mps 677 mmHg 25%
    05:00 +21°C° 0 mm 2 mps 678 mmHg 23%
    06:00 +24°C° 0 mm 2 mps 678 mmHg 20%
    07:00 +26°C° 0 mm 2 mps 679 mmHg 18%
    08:00 +29°C° 0 mm 3 mps 679 mmHg 15%
    09:00 +33°C° 0 mm 3 mps 679 mmHg 12%
    10:00 +36°C° 0 mm 3 mps 680 mmHg 9%
    11:00 +37°C° 0 mm 4 mps 679 mmHg 8%
    12:00 +38°C° 0 mm 4 mps 679 mmHg 6%
    13:00 +41°C° 0 mm 5 mps 679 mmHg 5%
    14:00 +40°C° 0 mm 6 mps 678 mmHg 5%
    15:00 +40°C° 0 mm 6 mps 678 mmHg 5%
    16:00 +39°C° 0 mm 7 mps 677 mmHg 6%
    17:00 +35°C° 0 mm 5 mps 677 mmHg 8%
    18:00 +30°C° 0 mm 4 mps 677 mmHg 10%
    19:00 +26°C° 0 mm 3 mps 676 mmHg 12%
    20:00 +25°C° 0 mm 3 mps 676 mmHg 13%
    21:00 +24°C° 0 mm 2 mps 676 mmHg 14%
    22:00 +23°C° 0 mm 2 mps 676 mmHg 16%
    23:00 +21°C° 0 mm 2 mps 676 mmHg 20%

    Day after tomorrow, 22 September, Sunday

    Time Temperature Precipitation Wind Pressure Humidity
    00:00 +22°C° 0 mm 1 mps 675 mmHg 24%
    01:00 +21°C° 0 mm 1 mps 675 mmHg 28%
    02:00 +20°C° 0 mm 1 mps 675 mmHg 30%
    03:00 +20°C° 0 mm 1 mps 675 mmHg 32%
    04:00 +17°C° 0 mm 0 mps 675 mmHg 34%
    05:00 +19°C° 0 mm 0 mps 676 mmHg 27%
    06:00 +24°C° 0 mm 1 mps 677 mmHg 19%
    07:00 +26°C° 0 mm 1 mps 678 mmHg 12%
    08:00 +29°C° 0 mm 2 mps 679 mmHg 10%
    09:00 +34°C° 0 mm 3 mps 680 mmHg 8%
    10:00 +37°C° 0 mm 4 mps 681 mmHg 6%
    11:00 +36°C° 0 mm 7 mps 681 mmHg 10%
    12:00 +37°C° 0 mm 9 mps 681 mmHg 14%
    13:00 +37°C° 0 mm 11 mps 681 mmHg 18%
    14:00 +36°C° 0 mm 11 mps 681 mmHg 23%
    15:00 +33°C° 0 mm 11 mps 681 mmHg 28%
    16:00 +32°C° 0 mm 12 mps 681 mmHg 34%
    17:00 +29°C° 0 mm 11 mps 681 mmHg 38%
    18:00 +26°C° 0 mm 10 mps 681 mmHg 42%
    19:00 +23°C° 0 mm 10 mps 682 mmHg 47%
    20:00 +22°C° 0 mm 9 mps 682 mmHg 49%
    21:00 +21°C° 0 mm 7 mps 682 mmHg 50%
    22:00 +20°C° 0 mm 6 mps 682 mmHg 52%
    23:00 +19°C° 0 mm 6 mps 682 mmHg 54%

    23 September, Monday

    Time Temperature Precipitation Wind Pressure Humidity
    00:00 +17°C° 0 mm 5 mps 682 mmHg 55%
    01:00 +16°C° 0 mm 5 mps 682 mmHg 57%
    02:00 +15°C° 0 mm 4 mps 681 mmHg 58%
    03:00 +15°C° 0 mm 4 mps 681 mmHg 60%
    04:00 +14°C° 0 mm 4 mps 681 mmHg 62%
    05:00 +15°C° 0 mm 4 mps 681 mmHg 58%
    06:00 +17°C° 0 mm 3 mps 681 mmHg 55%
    07:00 +18°C° 0 mm 3 mps 682 mmHg 52%
    08:00 +21°C° 0 mm 3 mps 682 mmHg 44%
    09:00 +25°C° 0 mm 3 mps 682 mmHg 36%
    10:00 +28°C° 0 mm 3 mps 683 mmHg 28%
    11:00 +30°C° 0 mm 3 mps 683 mmHg 24%
    12:00 +33°C° 0 mm 4 mps 682 mmHg 20%
    13:00 +36°C° 0 mm 4 mps 682 mmHg 16%
    14:00 +36°C° 0 mm 4 mps 682 mmHg 16%
    15:00 +36°C° 0 mm 5 mps 681 mmHg 16%
    16:00 +36°C° 0 mm 5 mps 681 mmHg 16%
    17:00 +32°C° 0 mm 5 mps 681 mmHg 24%
    18:00 +27°C° 0 mm 4 mps 680 mmHg 31%
    19:00 +22°C° 0 mm 4 mps 680 mmHg 38%
    20:00 +21°C° 0 mm 3 mps 680 mmHg 40%
    21:00 +21°C° 0 mm 3 mps 680 mmHg 41%
    22:00 +20°C° 0 mm 2 mps 680 mmHg 43%
    23:00 +19°C° 0 mm 2 mps 680 mmHg 44%

    24 September, Tuesday

    Time Temperature Precipitation Wind Pressure Humidity
    00:00 +19°C° 0 mm 2 mps 680 mmHg 45%
    01:00 +18°C° 0 mm 2 mps 679 mmHg 46%
    02:00 +18°C° 0 mm 2 mps 680 mmHg 47%
    03:00 +17°C° 0 mm 3 mps 680 mmHg 47%
    04:00 +17°C° 0 mm 3 mps 680 mmHg 48%
    05:00 +18°C° 0 mm 2 mps 680 mmHg 45%
    06:00 +20°C° 0 mm 2 mps 681 mmHg 41%
    07:00 +21°C° 0 mm 2 mps 681 mmHg 37%
    08:00 +25°C° 0 mm 3 mps 682 mmHg 32%
    09:00 +28°C° 0 mm 3 mps 683 mmHg 26%
    10:00 +30°C° 0 mm 3 mps 683 mmHg 21%
    11:00 +33°C° 0 mm 4 mps 683 mmHg 19%
    12:00 +35°C° 0 mm 4 mps 683 mmHg 16%
    13:00 +37°C° 0 mm 5 mps 682 mmHg 14%
    14:00 +36°C° 0 mm 6 mps 682 mmHg 14%
    15:00 +35°C° 0 mm 6 mps 682 mmHg 15%
    16:00 +34°C° 0 mm 7 mps 681 mmHg 16%
    17:00 +30°C° 0 mm 6 mps 681 mmHg 21%
    18:00 +27°C° 0 mm 5 mps 681 mmHg 25%
    19:00 +22°C° 0 mm 4 mps 680 mmHg 29%
    20:00 +22°C° 0 mm 4 mps 680 mmHg 30%
    21:00 +21°C° 0 mm 3 mps 680 mmHg 31%
    22:00 +20°C° 0 mm 3 mps 680 mmHg 32%
    23:00 +19°C° 0 mm 2 mps 680 mmHg 33%

    25 September, Wednesday

    Time Temperature Precipitation Wind Pressure Humidity
    00:00 +19°C° 0 mm 2 mps 679 mmHg 34%
    01:00 +18°C° 0 mm 2 mps 679 mmHg 35%
    02:00 +18°C° 0 mm 2 mps 679 mmHg 37%
    03:00 +17°C° 0 mm 2 mps 678 mmHg 38%
    04:00 +16°C° 0 mm 2 mps 678 mmHg 40%
    05:00 +19°C° 0 mm 1 mps 679 mmHg 36%
    06:00 +21°C° 0 mm 1 mps 679 mmHg 32%
    07:00 +23°C° 0 mm 1 mps 680 mmHg 28%
    08:00 +26°C° 0 mm 1 mps 681 mmHg 24%
    09:00 +29°C° 0 mm 2 mps 681 mmHg 20%
    10:00 +32°C° 0 mm 2 mps 682 mmHg 16%
    11:00 +35°C° 0 mm 3 mps 682 mmHg 14%
    12:00 +37°C° 0 mm 4 mps 681 mmHg 11%
    13:00 +40°C° 0 mm 5 mps 681 mmHg 9%
    14:00 +40°C° 0 mm 5 mps 681 mmHg 9%
    15:00 +39°C° 0 mm 6 mps 681 mmHg 10%
    16:00 +39°C° 0 mm 7 mps 680 mmHg 10%
    17:00 +34°C° 0 mm 6 mps 680 mmHg 14%
    18:00 +30°C° 0 mm 6 mps 680 mmHg 18%
    19:00 +26°C° 0 mm 5 mps 680 mmHg 22%
    20:00 +25°C° 0 mm 4 mps 680 mmHg 23%
    21:00 +25°C° 0 mm 4 mps 680 mmHg 23%
    22:00 +24°C° 0 mm 3 mps 680 mmHg 24%
    23:00 +22°C° 0 mm 3 mps 680 mmHg 25%
    Show more